Dan Viking — OVIL2 — position and weather

sailwx.info

Track history (hours):
 
Tides and Currents Weather Stations Pressure Air Temp Water Temp Dewpoint Dewpoint Depression Visibility Wind Speed Wind Dir Waves Ship Positions

Dan Viking

Last reported at 2014-Jul-30 02:17 UTC. Time now 2014-Jul-30 23:14 UTC.
Position N 54°10' E 011°18'.

Length 79 m; draft 3.5 m.

Type: Cargo ship. MMSI: 220439000.

Date/timePositionNaut miles runAvg speedWind from/ knotsBaromVisibWave heightAir tempDewpointWater temp
2014-Jul-30 02:17N 54°10' E 011°18'5 6.9
2014-Jul-30 01:33N 54°13' E 011°25'8 7.7
2014-Jul-30 00:33N 54°17' E 011°36'8 7.7
2014-Jul-29 23:33N 54°21' E 011°47'7 7.4
2014-Jul-29 22:33N 54°25' E 011°58'7 6.7
2014-Jul-29 21:33N 54°27' E 012°09'8 7.9
2014-Jul-29 20:33N 54°35' E 012°13'8 8.4
2014-Jul-29 19:33N 54°42' E 012°21'8 8.3
2014-Jul-29 18:33N 54°49' E 012°29'8 8.4
2014-Jul-29 17:33N 54°56' E 012°36'8 7.7
2014-Jul-29 16:33N 55°03' E 012°29'8 7.5
2014-Jul-29 15:29N 55°08' E 012°19'3 0.3
2014-Jul-29 06:33N 55°10' E 012°15'9 9.2
2014-Jul-29 05:33N 55°04' E 012°28'9 8.6
2014-Jul-29 04:33N 54°57' E 012°36'9 8.7
2014-Jul-29 03:33N 54°50' E 012°28'9 9.0
2014-Jul-29 02:33N 54°43' E 012°17'9 9.0
2014-Jul-29 01:33N 54°36' E 012°09'8 8.0
2014-Jul-29 00:33N 54°30' E 012°00'10 9.5
2014-Jul-28 23:33N 54°29' E 011°44'10 9.7
2014-Jul-28 22:33N 54°30' E 011°27'9 9.3
2014-Jul-28 21:33N 54°35' E 011°13'9 9.3
2014-Jul-28 20:33N 54°35' E 010°57'8 0.2
2014-Jul-27 04:33N 54°36' E 011°10'7 6.7
2014-Jul-27 03:33N 54°33' E 011°21'7 6.8
2014-Jul-27 02:33N 54°31' E 011°32'7 6.7
2014-Jul-27 01:33N 54°29' E 011°43'7 6.9
2014-Jul-27 00:33N 54°27' E 011°55'7 6.8
2014-Jul-26 23:33N 54°27' E 012°06'7 6.8
2014-Jul-26 22:33N 54°33' E 012°11'16 6.7
2014-Jul-26 20:11N 54°46' E 012°26'6 7.1
2014-Jul-26 19:21N 54°51' E 012°31'6 6.8
2014-Jul-26 18:32N 54°57' E 012°35'6 6.0
2014-Jul-26 17:33N 55°02' E 012°32'7 6.9
2014-Jul-26 16:33N 55°06' E 012°22'9 0.6
2014-Jul-26 01:31N 55°12' E 012°10'0 0.0
2014-Jul-26 00:31N 55°12' E 012°10'0 0.0
2014-Jul-25 20:25N 55°12' E 012°10'4 3.8
2014-Jul-25 19:28N 55°10' E 012°16'9 9.6
2014-Jul-25 18:33N 55°05' E 012°28'10 7.7
2014-Jul-25 17:12N 54°55' E 012°33'16 8.9
2014-Jul-25 15:21N 54°42' E 012°15'8 8.9
2014-Jul-25 14:28N 54°35' E 012°09'7 8.0
2014-Jul-25 13:33N 54°28' E 012°06'8 8.0
2014-Jul-25 12:33N 54°20' E 012°08'8 8.2
2014-Jul-25 11:33N 54°12' E 012°05'3 3.0
2014-Jul-25 10:33N 54°09' E 012°07'0 0.0
2014-Jul-25 09:33N 54°09' E 012°07'0 0.0
2014-Jul-25 08:33N 54°09' E 012°07'0 0.0
2014-Jul-25 07:33N 54°09' E 012°07'0 0.0
2014-Jul-25 06:30N 54°09' E 012°07'0 0.0
2014-Jul-25 05:30N 54°09' E 012°07'0 0.0
2014-Jul-25 04:30N 54°09' E 012°07'0 0.0
2014-Jul-25 03:33N 54°09' E 012°07'0 0.0
2014-Jul-25 02:30N 54°09' E 012°07'0 0.0
2014-Jul-25 01:33N 54°09' E 012°07'0 0.0
2014-Jul-25 00:33N 54°09' E 012°07'0 0.0
2014-Jul-24 23:33N 54°09' E 012°07'0 0.0
2014-Jul-24 22:12N 54°09' E 012°07'0 0.0
2014-Jul-24 21:15N 54°09' E 012°07'0 0.0
2014-Jul-24 20:33N 54°09' E 012°07'2 2.0
2014-Jul-24 19:32N 54°11' E 012°05'8 8.0
2014-Jul-24 18:33N 54°18' E 012°02'9 9.0
2014-Jul-24 17:33N 54°26' E 012°09'9 9.1
2014-Jul-24 16:33N 54°35' E 012°14'9 8.6
2014-Jul-24 15:33N 54°42' E 012°22'9 8.7
2014-Jul-24 14:33N 54°50' E 012°29'9 8.6
2014-Jul-24 13:33N 54°58' E 012°35'8 7.7
2014-Jul-24 12:30N 55°05' E 012°26'8 8.3
2014-Jul-24 11:33N 55°09' E 012°15'5 1.5
2014-Jul-24 08:26N 55°13' E 012°10'0 0.0
2014-Jul-24 06:05N 55°13' E 012°10'0 0.0
2014-Jul-24 05:32N 55°13' E 012°10'0 0.0
2014-Jul-24 04:34N 55°13' E 012°10'4 3.8
2014-Jul-24 03:33N 55°10' E 012°15'8 8.0
2014-Jul-24 02:33N 55°05' E 012°25'8 8.3
2014-Jul-24 01:33N 54°59' E 012°35'10 8.9
2014-Jul-24 00:26N 54°50' E 012°29'8 8.8
2014-Jul-23 23:33N 54°43' E 012°24'9 8.5
2014-Jul-23 22:33N 54°35' E 012°19'9 8.7
2014-Jul-23 21:34N 54°26' E 012°14'9 8.5
2014-Jul-23 20:33N 54°24' E 011°60'9 8.7
2014-Jul-23 19:33N 54°20' E 011°46'9 8.6
2014-Jul-23 18:34N 54°16' E 011°34'9 9.2
2014-Jul-23 17:34N 54°10' E 011°20'9 8.9
2014-Jul-23 16:34N 54°05' E 011°09'3 0.2
2014-Jul-23 03:13N 54°08' E 011°12'5 7.7
2014-Jul-23 02:34N 54°11' E 011°19'8 7.6
2014-Jul-23 01:34N 54°15' E 011°29'7 7.4
2014-Jul-23 00:33N 54°19' E 011°41'8 8.0
2014-Jul-22 23:33N 54°23' E 011°52'8 7.7
2014-Jul-22 22:32N 54°26' E 012°05'7 7.4
2014-Jul-22 21:33N 54°32' E 012°11'8 8.1
2014-Jul-22 20:33N 54°39' E 012°17'8 8.1
2014-Jul-22 19:34N 54°46' E 012°25'8 8.0
2014-Jul-22 18:34N 54°53' E 012°33'7 6.7
2014-Jul-22 17:34N 54°59' E 012°35'7 7.1
2014-Jul-22 16:34N 55°04' E 012°26'7 7.4
2014-Jul-22 15:34N 55°09' E 012°17'2 0.2
2014-Jul-22 09:16N 55°10' E 012°14'7 9.2
2014-Jul-22 08:33N 55°06' E 012°23'9 8.9
2014-Jul-22 07:30N 54°60' E 012°36'8 8.6
2014-Jul-22 06:32N 54°52' E 012°31'8 8.5
2014-Jul-22 05:33N 54°45' E 012°25'8 8.0
2014-Jul-22 04:33N 54°37' E 012°21'9 8.7
2014-Jul-22 03:33N 54°29' E 012°16'7 7.5
2014-Jul-22 02:33N 54°24' E 012°06'8 8.3
2014-Jul-22 01:33N 54°24' E 011°52'8 7.8
2014-Jul-22 00:33N 54°27' E 011°39'8 8.5
2014-Jul-21 23:33N 54°30' E 011°26'8 7.9
2014-Jul-21 22:33N 54°34' E 011°13'  
Track history (hours):
 
Tides and Currents Weather Stations Pressure Air Temp Water Temp Dewpoint Dewpoint Depression Visibility Wind Speed Wind Dir Waves Ship Positions

Dan Viking

Last reported at 2014-Jul-30 02:17 UTC. Time now 2014-Jul-30 23:14 UTC.
Position N 54°10' E 011°18'.

Length 79 m; draft 3.5 m.

Type: Cargo ship. MMSI: 220439000.

Date/timePositionNaut miles runAvg speedWind from/ knotsBaromVisibWave heightAir tempDewpointWater temp
2014-Jul-30 02:17N 54°10' E 011°18'5 6.9
2014-Jul-30 01:33N 54°13' E 011°25'8 7.7
2014-Jul-30 00:33N 54°17' E 011°36'8 7.7
2014-Jul-29 23:33N 54°21' E 011°47'7 7.4
2014-Jul-29 22:33N 54°25' E 011°58'7 6.7
2014-Jul-29 21:33N 54°27' E 012°09'8 7.9
2014-Jul-29 20:33N 54°35' E 012°13'8 8.4
2014-Jul-29 19:33N 54°42' E 012°21'8 8.3
2014-Jul-29 18:33N 54°49' E 012°29'8 8.4
2014-Jul-29 17:33N 54°56' E 012°36'8 7.7
2014-Jul-29 16:33N 55°03' E 012°29'8 7.5
2014-Jul-29 15:29N 55°08' E 012°19'3 0.3
2014-Jul-29 06:33N 55°10' E 012°15'9 9.2
2014-Jul-29 05:33N 55°04' E 012°28'9 8.6
2014-Jul-29 04:33N 54°57' E 012°36'9 8.7
2014-Jul-29 03:33N 54°50' E 012°28'9 9.0
2014-Jul-29 02:33N 54°43' E 012°17'9 9.0
2014-Jul-29 01:33N 54°36' E 012°09'8 8.0
2014-Jul-29 00:33N 54°30' E 012°00'10 9.5
2014-Jul-28 23:33N 54°29' E 011°44'10 9.7
2014-Jul-28 22:33N 54°30' E 011°27'9 9.3
2014-Jul-28 21:33N 54°35' E 011°13'9 9.3
2014-Jul-28 20:33N 54°35' E 010°57'8 0.2
2014-Jul-27 04:33N 54°36' E 011°10'7 6.7
2014-Jul-27 03:33N 54°33' E 011°21'7 6.8
2014-Jul-27 02:33N 54°31' E 011°32'7 6.7
2014-Jul-27 01:33N 54°29' E 011°43'7 6.9
2014-Jul-27 00:33N 54°27' E 011°55'7 6.8
2014-Jul-26 23:33N 54°27' E 012°06'7 6.8
2014-Jul-26 22:33N 54°33' E 012°11'16 6.7
2014-Jul-26 20:11N 54°46' E 012°26'6 7.1
2014-Jul-26 19:21N 54°51' E 012°31'6 6.8
2014-Jul-26 18:32N 54°57' E 012°35'6 6.0
2014-Jul-26 17:33N 55°02' E 012°32'7 6.9
2014-Jul-26 16:33N 55°06' E 012°22'9 0.6
2014-Jul-26 01:31N 55°12' E 012°10'0 0.0
2014-Jul-26 00:31N 55°12' E 012°10'0 0.0
2014-Jul-25 20:25N 55°12' E 012°10'4 3.8
2014-Jul-25 19:28N 55°10' E 012°16'9 9.6
2014-Jul-25 18:33N 55°05' E 012°28'10 7.7
2014-Jul-25 17:12N 54°55' E 012°33'16 8.9
2014-Jul-25 15:21N 54°42' E 012°15'8 8.9
2014-Jul-25 14:28N 54°35' E 012°09'7 8.0
2014-Jul-25 13:33N 54°28' E 012°06'8 8.0
2014-Jul-25 12:33N 54°20' E 012°08'8 8.2
2014-Jul-25 11:33N 54°12' E 012°05'3 3.0
2014-Jul-25 10:33N 54°09' E 012°07'0 0.0
2014-Jul-25 09:33N 54°09' E 012°07'0 0.0
2014-Jul-25 08:33N 54°09' E 012°07'0 0.0
2014-Jul-25 07:33N 54°09' E 012°07'0 0.0
2014-Jul-25 06:30N 54°09' E 012°07'0 0.0
2014-Jul-25 05:30N 54°09' E 012°07'0 0.0
2014-Jul-25 04:30N 54°09' E 012°07'0 0.0
2014-Jul-25 03:33N 54°09' E 012°07'0 0.0
2014-Jul-25 02:30N 54°09' E 012°07'0 0.0
2014-Jul-25 01:33N 54°09' E 012°07'0 0.0
2014-Jul-25 00:33N 54°09' E 012°07'0 0.0
2014-Jul-24 23:33N 54°09' E 012°07'0 0.0
2014-Jul-24 22:12N 54°09' E 012°07'0 0.0
2014-Jul-24 21:15N 54°09' E 012°07'0 0.0
2014-Jul-24 20:33N 54°09' E 012°07'2 2.0
2014-Jul-24 19:32N 54°11' E 012°05'8 8.0
2014-Jul-24 18:33N 54°18' E 012°02'9 9.0
2014-Jul-24 17:33N 54°26' E 012°09'9 9.1
2014-Jul-24 16:33N 54°35' E 012°14'9 8.6
2014-Jul-24 15:33N 54°42' E 012°22'9 8.7
2014-Jul-24 14:33N 54°50' E 012°29'9 8.6
2014-Jul-24 13:33N 54°58' E 012°35'8 7.7
2014-Jul-24 12:30N 55°05' E 012°26'8 8.3
2014-Jul-24 11:33N 55°09' E 012°15'5 1.5
2014-Jul-24 08:26N 55°13' E 012°10'0 0.0
2014-Jul-24 06:05N 55°13' E 012°10'0 0.0
2014-Jul-24 05:32N 55°13' E 012°10'0 0.0
2014-Jul-24 04:34N 55°13' E 012°10'4 3.8
2014-Jul-24 03:33N 55°10' E 012°15'8 8.0
2014-Jul-24 02:33N 55°05' E 012°25'8 8.3
2014-Jul-24 01:33N 54°59' E 012°35'10 8.9
2014-Jul-24 00:26N 54°50' E 012°29'8 8.8
2014-Jul-23 23:33N 54°43' E 012°24'9 8.5
2014-Jul-23 22:33N 54°35' E 012°19'9 8.7
2014-Jul-23 21:34N 54°26' E 012°14'9 8.5
2014-Jul-23 20:33N 54°24' E 011°60'9 8.7
2014-Jul-23 19:33N 54°20' E 011°46'9 8.6
2014-Jul-23 18:34N 54°16' E 011°34'9 9.2
2014-Jul-23 17:34N 54°10' E 011°20'9 8.9
2014-Jul-23 16:34N 54°05' E 011°09'3 0.2
2014-Jul-23 03:13N 54°08' E 011°12'5 7.7
2014-Jul-23 02:34N 54°11' E 011°19'8 7.6
2014-Jul-23 01:34N 54°15' E 011°29'7 7.4
2014-Jul-23 00:33N 54°19' E 011°41'8 8.0
2014-Jul-22 23:33N 54°23' E 011°52'8 7.7
2014-Jul-22 22:32N 54°26' E 012°05'7 7.4
2014-Jul-22 21:33N 54°32' E 012°11'8 8.1
2014-Jul-22 20:33N 54°39' E 012°17'8 8.1
2014-Jul-22 19:34N 54°46' E 012°25'8 8.0
2014-Jul-22 18:34N 54°53' E 012°33'7 6.7
2014-Jul-22 17:34N 54°59' E 012°35'7 7.1
2014-Jul-22 16:34N 55°04' E 012°26'7 7.4
2014-Jul-22 15:34N 55°09' E 012°17'2 0.2
2014-Jul-22 09:16N 55°10' E 012°14'7 9.2
2014-Jul-22 08:33N 55°06' E 012°23'9 8.9
2014-Jul-22 07:30N 54°60' E 012°36'8 8.6
2014-Jul-22 06:32N 54°52' E 012°31'8 8.5
2014-Jul-22 05:33N 54°45' E 012°25'8 8.0
2014-Jul-22 04:33N 54°37' E 012°21'9 8.7
2014-Jul-22 03:33N 54°29' E 012°16'7 7.5
2014-Jul-22 02:33N 54°24' E 012°06'8 8.3
2014-Jul-22 01:33N 54°24' E 011°52'8 7.8
2014-Jul-22 00:33N 54°27' E 011°39'8 8.5
2014-Jul-21 23:33N 54°30' E 011°26'8 7.9
2014-Jul-21 22:33N 54°34' E 011°13'  

Dump ship's entire track history